Flag for U.S.A. Weather past 2 weeks in Colorado Springs, Colorado, U.S.A.

Now
55 °F

Broken clouds.


Feels Like: 53 °F
Forecast: 46 / 57 °F
Wind: 8 mph from South

Location: City Of Colorado Springs Municipal Airport

Current Time: May 4, 2015 at 10:23:39 AM

Latest Report: May 4, 2015 at 9:54 AM


Visibility: 10 mi

Pressure: 30.02 "Hg

Humidity: 69%

Dew point: 45 °F

Location of Colorado SpringsLocation

Historic Weather in Colorado Springs — Graph

°F

Colorado Springs temperature yesterday

Maximum temperature yesterday: 74 °F (at 10:54 AM)
Minimum temperature yesterday: 46 °F (at 3:54 AM)
Average temperature yesterday: 60 °F

Past Weeks' High & Low Weather Summary

 TemperatureHumidityPressure
High78 °F (Apr 30, 2:54 PM)100% (Apr 26, 7:54 PM)30.36 "Hg (Apr 26, 7:54 PM)
Low33 °F (Apr 21, 5:54 AM)15% (Apr 30, 11:54 AM)29.55 "Hg (Apr 24, 12:54 PM)
Average51 °F55%29.91 "Hg
* Reported Apr 19 8:54 AM — May 4 8:54 AM, Colorado Springs, Weather by CustomWeather, © 2015

Note: Actual official high and low records may vary slightly from our data, if they occured in-between our weather recording intervals... More about our weather records

Advertising

Colorado Springs weather history for previous 24 hours

 ConditionsComfort  
Time TempWeatherWind HumidityBarometerVisibility
8:54 AM
Mon, May 4
53 °FPartly sunny.5 mph74%30.03 "Hg10 mi
7:54 AM52 °FPartly sunny.3 mph83%30.01 "Hg10 mi
6:54 AM49 °FPassing clouds.7 mph90%29.98 "Hg8 mi
5:54 AM49 °FOvercast.5 mph86%29.95 "Hg10 mi
4:54 AM49 °FMostly cloudy.6 mph90%29.93 "Hg10 mi
3:54 AM48 °FLight rain. Fog.7 mph93%29.93 "Hg6 mi
2:54 AM48 °FLight rain. Overcast.10 mph89%29.92 "Hg8 mi
1:54 AM49 °FLight rain. Fog.12 mph86%29.94 "Hg5 mi
12:54 AM52 °FLight rain. Mostly cloudy.8 mph75%29.95 "Hg10 mi
11:54 PM
Sun, May 3
53 °FMostly cloudy.10 mph66%29.93 "Hg10 mi
10:54 PM53 °FLight rain. Passing clouds.14 mph64%29.90 "Hg10 mi
9:54 PM52 °FPartly cloudy.16 mph66%29.90 "Hg10 mi
8:54 PM52 °FPassing clouds.17 mph61%29.88 "Hg10 mi
7:54 PM56 °FScattered clouds.26 mph55%29.87 "Hg10 mi
6:54 PM63 °FPartly sunny.16 mph38%29.86 "Hg10 mi
5:54 PM66 °FBroken clouds.8 mph31%29.86 "Hg10 mi
4:54 PM67 °FBroken clouds.25 mph31%29.84 "Hg10 mi
3:54 PM70 °FBroken clouds.18 mph25%29.84 "Hg10 mi
2:54 PM71 °FBroken clouds.22 mph23%29.82 "Hg10 mi
1:54 PM71 °FPartly sunny.6 mph19%29.82 "Hg10 mi
12:54 PM68 °FPartly sunny.7 mph20%29.84 "Hg10 mi
11:54 AM70 °FPartly sunny.6 mph18%29.83 "Hg10 mi
10:54 AM74 °FBroken clouds.6 mph17%29.80 "Hg10 mi
Weather by CustomWeather, © 2015

See weather overviewHow to use our weather pages